Tracking 35280 objects as of 7-Sep-2026
HD Live streaming from Space Station
objects crossing your sky now

THORAD AGENA D DEB


THORAD AGENA D DEB is no longer on orbit


NORAD ID: 4680
Int'l Code: 1970-025BD
Launch date: April 8, 1970
Source: United States (US)
Launch site: AIR FORCE WESTERN TEST RANGE (AFWTR)
Decay date: 1988-12-16

Note: This is SATELLITE DEBRIS
Your satellite tracking list
Your tracking list is empty




NASA's NSSDC Master Catalog

Two Line Element Set (TLE):
1 04680U 70025 BD 88347.00585297  .02347764 +00000-0 +63825-1 0  9996
2 04680 099.6940 038.0054 0009957 345.9360 014.9921 15.37465834950294
Source of the keplerian elements: AFSPC